Location: Byszew
(52.1813°N, 19.2693°E)
Time: 22:58:49
(UTC+00:00)

Cosmos 1937 Rocket - Visible Passes

Search period start: 24 June 2021 00:00
Search period end: 04 July 2021 00:00
Orbit: 745 x 781 km, 74.0° (Epoch: 24 June)

Date Brightness Start Highest point End Pass type
(mag) Time Alt. Az. Time Alt. Az. Time Alt. Az.
24 Jun 5.2 21:15:59 10° N 21:20:33 28° NE 21:25:06 10° ESE visible
24 Jun 3.6 22:57:41 10° NNW 23:02:59 64° WSW 23:06:27 21° S visible
25 Jun 5.6 00:42:35 10° WNW 00:43:51 11° W 00:45:06 10° WSW visible
25 Jun 5.6 20:37:46 10° N 20:41:42 20° NE 20:45:36 10° E visible
25 Jun 3.6 22:19:09 10° NNW 22:24:31 83° ENE 22:28:24 19° SSE visible
26 Jun 5.2 00:02:17 10° NW 00:05:48 18° W 00:08:32 13° SW visible
26 Jun 5.9 19:59:42 10° N 20:02:43 15° NE 20:05:43 10° ENE visible
26 Jun 4.1 21:40:43 10° NNW 21:45:58 54° ENE 21:50:22 14° SE visible
26 Jun 4.7 23:23:09 10° NW 23:27:40 29° W 23:30:30 18° SW visible
27 Jun 4.7 21:02:22 10° NNW 21:07:18 36° NE 21:12:11 10° ESE visible
27 Jun 4.1 22:44:20 10° NW 22:49:24 45° WSW 22:52:30 22° SSW visible
28 Jun 5.2 20:24:05 10° N 20:28:31 26° NE 20:32:55 10° ESE visible
28 Jun 3.6 22:05:43 10° NNW 22:11:02 72° WSW 22:14:32 22° SSE visible
28 Jun 5.6 23:49:52 10° WNW 23:52:01 12° W 23:54:10 10° WSW visible
29 Jun 3.6 21:27:12 10° NNW 21:32:34 74° ENE 21:36:35 18° SSE visible
29 Jun 5.2 23:10:07 10° NW 23:13:57 20° W 23:16:44 14° SW visible
30 Jun 4.2 20:48:48 10° NNW 20:53:58 49° ENE 20:58:40 12° SE visible
30 Jun 4.6 22:31:06 10° NW 22:35:47 32° WSW 22:38:49 18° SSW visible
01 Jul 4.7 20:10:28 10° NNW 20:15:17 33° NE 20:20:03 10° ESE visible
01 Jul 4.0 21:52:20 10° NNW 21:57:29 51° WSW 22:00:56 20° S visible
02 Jul 3.6 21:13:45 10° NNW 21:19:06 81° WSW 21:23:05 18° SSE visible
02 Jul 5.6 22:57:27 10° WNW 23:00:11 14° W 23:02:53 10° WSW visible
03 Jul 3.7 20:35:16 10° NNW 20:40:36 67° ENE 20:45:15 13° SE visible
03 Jul 5.2 22:17:59 10° NW 22:22:05 23° W 22:25:24 13° SW visible
